Location: Chandolas
(44.4033°N, 4.2533°E)
Time: 04:19:06
(UTC+00:00)

Okean O Rocket - Visible Passes

Search period start: 28 February 2020 00:00
Search period end: 09 March 2020 00:00
Orbit: 622 x 645 km, 98.2° (Epoch: 27 February)

Date Brightness Start Highest point End Pass type
(mag) Time Alt. Az. Time Alt. Az. Time Alt. Az.
28 Feb 1.5 05:42:53 10° N 05:47:16 80° WNW 05:51:35 10° SSW visible
29 Feb 4.6 04:29:14 10° NE 04:32:06 17° E 04:34:57 10° SE visible
01 Mar 3.8 04:50:02 10° NE 04:53:47 28° E 04:57:30 10° SSE visible
02 Mar 2.8 05:11:12 10° NNE 05:15:24 46° E 05:19:34 10° S visible
03 Mar 1.8 05:32:35 10° NNE 05:36:57 79° ESE 05:41:17 10° S visible
04 Mar 4.8 04:19:36 10° ENE 04:21:41 13° E 04:23:44 10° ESE visible
05 Mar 4.3 04:40:02 10° NE 04:43:24 22° E 04:46:45 10° SE visible
06 Mar 3.4 05:01:02 10° NNE 05:05:02 35° E 05:09:02 10° SSE visible
07 Mar 2.3 05:22:19 10° NNE 05:26:38 60° E 05:30:55 10° S visible
